TimeCST,TemperatureF,Dew PointF,Humidity,Sea Level PressureIn,VisibilityMPH,Wind Direction,Wind SpeedMPH,Gust SpeedMPH,PrecipitationIn,Events,Conditions,WindDirDegrees,DateUTC
12:15 AM,-11.2,-18.4,70,30.33,-9999.0,West,6.9,-,N/A,,Mostly Cloudy,270,2013-01-20 06:15:00
12:35 AM,-11.2,-18.4,70,30.32,-9999.0,West,5.8,-,N/A,,Mostly Cloudy,270,2013-01-20 06:35:00
12:55 AM,-9.4,-16.6,71,30.33,-9999.0,West,6.9,-,N/A,,Overcast,270,2013-01-20 06:55:00
1:15 AM,-9.4,-16.6,71,30.32,-9999.0,WSW,5.8,-,N/A,,Overcast,240,2013-01-20 07:15:00
1:35 AM,-11.2,-16.6,77,30.33,-9999.0,West,8.1,-,N/A,,Overcast,260,2013-01-20 07:35:00
1:55 AM,-11.2,-18.4,70,30.33,-9999.0,West,8.1,-,N/A,,Scattered Clouds,270,2013-01-20 07:55:00
2:15 AM,-11.2,-18.4,70,30.33,-9999.0,West,5.8,-,N/A,,Mostly Cloudy,270,2013-01-20 08:15:00
2:55 AM,-9.4,-16.6,71,30.33,-9999.0,West,6.9,-,N/A,,Overcast,270,2013-01-20 08:55:00
3:15 AM,-9.4,-16.6,71,30.33,-9999.0,West,5.8,-,N/A,,Overcast,270,2013-01-20 09:15:00
3:35 AM,-9.4,-16.6,71,30.32,-9999.0,WNW,4.6,-,N/A,,Mostly Cloudy,300,2013-01-20 09:35:00
3:55 AM,-9.4,-16.6,71,30.31,-9999.0,West,6.9,-,N/A,,Overcast,260,2013-01-20 09:55:00
4:15 AM,-9.4,-16.6,71,30.30,10.0,WNW,4.6,-,N/A,,Overcast,300,2013-01-20 10:15:00
4:35 AM,-7.6,-13.0,77,30.29,10.0,West,8.1,-,N/A,,Overcast,280,2013-01-20 10:35:00
4:55 AM,-7.6,-13.0,77,30.30,10.0,West,6.9,-,N/A,,Overcast,270,2013-01-20 10:55:00
5:15 AM,-7.6,-13.0,77,30.29,-9999.0,West,5.8,-,N/A,,Overcast,270,2013-01-20 11:15:00
5:35 AM,-4.0,-11.2,71,30.29,-9999.0,WNW,4.6,-,N/A,Snow,Heavy Snow,300,2013-01-20 11:35:00
5:55 AM,-4.0,-11.2,71,30.30,5.0,WNW,10.4,-,N/A,Snow,Light Snow,300,2013-01-20 11:55:00
6:15 AM,-4.0,-9.4,78,30.29,4.0,WNW,9.2,-,N/A,Snow,Light Snow,290,2013-01-20 12:15:00
6:35 AM,-4.0,-9.4,78,30.29,8.0,West,11.5,17.3,N/A,,Overcast,280,2013-01-20 12:35:00
6:55 AM,-4.0,-11.2,71,30.29,10.0,WNW,11.5,16.1,N/A,,Overcast,290,2013-01-20 12:55:00
7:15 AM,-4.0,-11.2,71,30.30,10.0,WNW,12.7,18.4,N/A,,Overcast,290,2013-01-20 13:15:00
7:35 AM,-4.0,-11.2,71,30.30,10.0,WNW,11.5,18.4,N/A,,Mostly Cloudy,300,2013-01-20 13:35:00
7:55 AM,-4.0,-11.2,71,30.31,10.0,NW,10.4,16.1,N/A,,Partly Cloudy,310,2013-01-20 13:55:00
8:35 AM,-5.8,-9999,N/A,30.32,10.0,NW,13.8,21.9,N/A,,Overcast,310,2013-01-20 14:35:00
8:55 AM,-5.8,-13.0,71,30.34,10.0,NW,12.7,18.4,N/A,,Overcast,310,2013-01-20 14:55:00
9:15 AM,-5.8,-13.0,71,30.34,10.0,NW,13.8,20.7,N/A,,Overcast,320,2013-01-20 15:15:00
9:35 AM,-5.8,-13.0,71,30.34,10.0,NNW,11.5,19.6,N/A,,Overcast,330,2013-01-20 15:35:00
9:55 AM,-5.8,-13.0,71,30.35,10.0,NNW,15.0,21.9,N/A,,Overcast,330,2013-01-20 15:55:00
10:15 AM,-4.0,-11.2,71,30.36,10.0,NNW,15.0,23.0,N/A,,Mostly Cloudy,340,2013-01-20 16:15:00
10:35 AM,-4.0,-11.2,71,30.37,10.0,NNW,18.4,24.2,N/A,,Mostly Cloudy,340,2013-01-20 16:35:00
10:55 AM,-4.0,-9999,N/A,30.38,10.0,NNW,16.1,21.9,N/A,,Mostly Cloudy,330,2013-01-20 16:55:00
11:15 AM,-4.0,-13.0,65,30.39,10.0,NNW,17.3,26.5,N/A,,Mostly Cloudy,330,2013-01-20 17:15:00
11:35 AM,-4.0,-13.0,65,30.39,10.0,NW,13.8,24.2,N/A,,Mostly Cloudy,320,2013-01-20 17:35:00
11:55 AM,-4.0,-13.0,65,30.39,10.0,NW,17.3,21.9,N/A,,Mostly Cloudy,310,2013-01-20 17:55:00
12:15 PM,-5.8,-13.0,71,30.39,10.0,NW,18.4,25.3,N/A,,Mostly Cloudy,310,2013-01-20 18:15:00
12:35 PM,-5.8,-13.0,71,30.38,10.0,NW,16.1,19.6,N/A,,Overcast,310,2013-01-20 18:35:00
12:55 PM,-4.0,-14.8,60,30.38,10.0,NW,16.1,23.0,N/A,,Overcast,320,2013-01-20 18:55:00
1:15 PM,-4.0,-14.8,60,30.36,10.0,NW,13.8,18.4,N/A,,Overcast,310,2013-01-20 19:15:00
1:35 PM,-4.0,-13.0,65,30.35,10.0,NW,11.5,18.4,N/A,,Overcast,310,2013-01-20 19:35:00
1:55 PM,-4.0,-14.8,60,30.34,10.0,NW,13.8,19.6,N/A,,Mostly Cloudy,320,2013-01-20 19:55:00
2:15 PM,-5.8,-16.6,60,30.34,10.0,NW,12.7,18.4,N/A,,Clear,310,2013-01-20 20:15:00
2:35 PM,-5.8,-16.6,60,30.34,10.0,NW,17.3,21.9,N/A,,Partly Cloudy,310,2013-01-20 20:35:00
2:55 PM,-7.6,-16.6,65,30.35,10.0,NW,12.7,17.3,N/A,,Mostly Cloudy,310,2013-01-20 20:55:00
3:15 PM,-7.6,-16.6,65,30.36,10.0,WNW,10.4,-,N/A,,Overcast,300,2013-01-20 21:15:00
3:35 PM,-7.6,-16.6,65,30.35,10.0,NW,12.7,19.6,N/A,,Overcast,310,2013-01-20 21:35:00
3:55 PM,-7.6,-18.4,59,30.35,10.0,NW,16.1,19.6,N/A,,Mostly Cloudy,310,2013-01-20 21:55:00
4:15 PM,-9.4,-18.4,65,30.34,10.0,WNW,13.8,21.9,N/A,,Mostly Cloudy,300,2013-01-20 22:15:00
4:35 PM,-9.4,-20.2,59,30.34,10.0,WNW,13.8,20.7,N/A,,Scattered Clouds,290,2013-01-20 22:35:00
4:55 PM,-9.4,-20.2,59,30.34,10.0,WNW,15.0,23.0,N/A,,Clear,300,2013-01-20 22:55:00
5:15 PM,-11.2,-20.2,64,30.34,10.0,NW,16.1,24.2,N/A,,Partly Cloudy,310,2013-01-20 23:15:00
5:35 PM,-11.2,-20.2,64,30.34,10.0,NW,18.4,26.5,N/A,,Mostly Cloudy,310,2013-01-20 23:35:00
5:55 PM,-11.2,-20.2,64,30.34,10.0,NW,17.3,23.0,N/A,,Partly Cloudy,310,2013-01-20 23:55:00
6:15 PM,-11.2,-20.2,64,30.33,10.0,NW,16.1,26.5,N/A,,Clear,310,2013-01-21 00:15:00
6:35 PM,-9999,-9999,N/A,30.32,10.0,NW,19.6,28.8,N/A,,Clear,310,2013-01-21 00:35:00
6:55 PM,-11.2,-22.0,59,30.33,10.0,NW,17.3,26.5,N/A,,Clear,310,2013-01-21 00:55:00
7:15 PM,-13.0,-22.0,64,30.33,10.0,WNW,18.4,24.2,N/A,,Clear,300,2013-01-21 01:15:00
7:35 PM,-13.0,-22.0,64,30.33,10.0,NW,12.7,21.9,N/A,,Clear,310,2013-01-21 01:35:00
7:55 PM,-13.0,-22.0,64,30.33,10.0,WNW,13.8,21.9,N/A,,Clear,300,2013-01-21 01:55:00
8:15 PM,-13.0,-22.0,64,30.33,10.0,WNW,11.5,21.9,N/A,,Partly Cloudy,300,2013-01-21 02:15:00
8:35 PM,-13.0,-22.0,64,30.33,10.0,NW,11.5,19.6,N/A,,Partly Cloudy,310,2013-01-21 02:35:00
8:55 PM,-13.0,-22.0,64,30.32,10.0,NW,12.7,23.0,N/A,,Clear,310,2013-01-21 02:55:00
9:15 PM,-13.0,-22.0,64,30.33,10.0,NW,13.8,23.0,N/A,,Partly Cloudy,310,2013-01-21 03:15:00
9:35 PM,-13.0,-22.0,64,30.33,10.0,NW,11.5,20.7,N/A,,Partly Cloudy,310,2013-01-21 03:35:00
9:55 PM,-13.0,-22.0,64,30.33,10.0,NW,15.0,20.7,N/A,,Partly Cloudy,310,2013-01-21 03:55:00
10:15 PM,-13.0,-22.0,64,30.34,10.0,NW,12.7,21.9,N/A,,Partly Cloudy,310,2013-01-21 04:15:00
10:35 PM,-13.0,-22.0,64,30.34,10.0,NW,15.0,-,N/A,,Mostly Cloudy,310,2013-01-21 04:35:00
10:55 PM,-13.0,-22.0,64,30.34,10.0,NW,15.0,20.7,N/A,,Overcast,320,2013-01-21 04:55:00
11:15 PM,-13.0,-22.0,64,30.34,10.0,NW,15.0,20.7,N/A,,Overcast,310,2013-01-21 05:15:00
11:35 PM,-14.8,-22.0,70,30.34,10.0,NW,12.7,-,N/A,,Overcast,310,2013-01-21 05:35:00
11:55 PM,-14.8,-23.8,64,30.34,10.0,NW,12.7,19.6,N/A,,Overcast,310,2013-01-21 05:55:00